Back to catalog

SL-16 DEB

AliveLEO
NORAD 22297·DEBRIS·🇷🇺 Russia

Launched Dec 25, 1992 from Baikonur Cosmodrome

Loading…

Next Passes (next 24 hours)

TLE

FreshSource: Space-Track

Epoch: Sep 13, 2026, 15:00 UTC

1 22297U 92093M   26256.62554667  .00000096  00000-0  82495-4 0  9994
2 22297  70.9497 346.1252 0097114 120.4022 240.6739 14.06362212725828

Track SL-16 DEB in real time with AllMySat

Download on the App Store